Wind_Speed
36 36 36 36 36 35 35 35 35 35 35 34 34 34 34 34 34 33 32 32 32 32 32 32 32 32 32 31 31 31 30 29 29 29 29 28 28 28 28 28 27 27 27
38 38 37 37 38 38 37 37 37 37 37 37 36 36 36 36 36 36 35 35 35 35 34 34 34 34 34 34 34 33 33 32 32 31 30 30 30 29 29 30 29 29 29
40 41 41 40 40 40 39 39 39 39 39 39 39 38 38 38 38 39 39 38 38 37 37 35 35 36 35 35 35 34 34 34 34 33 33 33 32 32 31 31 31 31 30
42 42 42 42 42 41 41 42 41 41 41 41 40 40 40 40 40 40 41 40 40 39 39 38 37 36 36 36 36 37 37 37 36 36 36 36 35 34 34 33 33 32 32
44 44 44 43 43 43 43 44 44 43 43 43 43 42 42 42 42 42 42 42 41 41 41 41 40 39 39 38 38 39 39 39 39 39 38 38 38 37 37 36 36 35 35
45 45 45 45 45 45 45 45 45 45 45 45 45 45 45 45 45 44 44 44 43 43 43 43 43 42 42 41 40 40 41 41 41 41 41 41 41 40 40 39 39 38 38
46 46 46 47 47 46 47 47 47 47 47 46 46 47 47 47 47 47 46 46 46 45 45 45 45 44 44 44 44 44 44 44 44 44 44 44 44 43 42 42 42 42 42
48 48 48 48 48 47 48 48 48 49 48 48 47 48 48 48 49 49 49 49 49 48 47 47 47 46 46 46 46 46 46 46 46 47 47 47 46 46 45 45 45 45 44
49 49 49 49 49 49 49 49 49 50 50 49 49 49 49 49 50 50 50 50 51 51 50 50 50 49 49 49 49 49 49 49 49 49 49 49 49 49 48 48 48 47 47
49 49 49 50 50 49 49 49 49 49 50 50 50 50 50 49 51 51 52 52 52 52 52 52 52 51 51 51 52 52 51 51 51 52 52 52 51 51 51 51 50 50 49
50 49 49 49 49 50 50 49 50 51 51 51 52 52 52 52 52 53 53 53 53 53 53 53 54 53 53 53 53 54 53 53 53 52 52 53 53 53 52 52 52 52 51
50 50 50 50 50 50 50 51 51 52 52 52 53 54 54 54 54 55 55 56 55 55 54 54 55 55 56 56 56 55 55 55 54 54 54 53 53 53 52 52 52 52 51
50 50 51 51 51 51 51 52 52 53 53 53 53 54 54 55 56 56 56 57 57 57 57 57 58 58 58 58 57 57 56 55 55 55 54 54 54 54 53 53 53 52 52
49 50 50 51 51 52 52 52 53 53 54 54 54 54 54 54 55 56 57 58 59 59 59 59 60 60 60 59 59 58 58 57 56 56 55 55 56 55 55 54 54 53 53
48 48 49 50 51 51 52 52 53 54 55 55 55 55 55 55 56 56 57 58 59 59 59 60 61 61 62 61 61 60 60 59 58 58 57 57 56 56 56 55 55 55 55
47 48 49 50 50 51 51 52 53 53 55 55 56 56 57 57 58 58 59 59 59 60 60 60 60 61 62 62 62 62 61 61 60 60 59 58 58 57 57 56 56 56 56
49 49 50 50 51 52 52 53 54 54 55 55 55 56 57 58 59 59 61 61 62 62 61 60 60 60 62 62 62 63 63 62 62 61 61 60 60 59 59 58 58 58 58
51 51 52 52 52 52 53 53 54 55 55 56 57 58 58 60 60 60 60 62 62 63 63 62 60 60 61 61 62 62 63 63 64 64 63 62 62 61 61 61 60 60 59
52 53 53 54 55 55 55 55 55 56 56 57 58 59 60 61 61 62 62 63 63 63 65 65 63 62 62 61 61 62 62 63 65 66 66 65 64 63 63 63 62 62 61
53 54 54 55 55 56 56 57 57 57 57 57 58 59 60 61 61 62 62 63 64 64 64 65 65 65 64 64 64 63 63 63 65 65 66 66 66 65 64 64 63 63 63
53 54 55 56 57 57 57 57 58 58 59 59 59 60 60 60 60 61 62 63 63 63 63 64 64 64 65 65 64 64 63 64 64 64 65 66 67 67 67 66 66 65 65
54 55 56 57 57 57 58 58 59 59 60 60 60 61 61 62 61 62 62 62 62 63 63 63 63 64 64 64 65 65 65 65 64 64 65 64 66 67 67 68 67 67 66
55 55 56 57 57 57 58 58 59 59 60 60 61 61 61 61 62 63 63 63 62 63 63 63 63 63 63 64 65 65 65 64 64 64 65 65 65 66 67 67 67 67 67
55 55 56 56 57 57 57 57 58 59 59 60 60 61 61 62 63 63 63 63 63 63 63 63 63 63 63 63 64 64 64 64 63 64 65 65 65 66 66 67 67 67 67
55 56 56 56 56 57 57 57 58 59 59 59 60 60 61 62 62 64 64 63 63 63 63 63 63 63 63 63 63 64 63 63 63 63 64 66 65 66 66 67 68 68 68
54 55 55 56 56 56 56 57 58 58 59 59 59 60 60 61 61 62 63 63 62 62 62 62 62 62 62 63 63 63 63 63 62 62 63 64 65 66 65 65 66 67 68
Wind_Direction
250 251 251 252 252 252 252 252 252 252 251 251 250 250 250 251 251 252 253 252 253 254 254 255 256 256 256 257 259 259 260 258 257 257 258 259 261 262 263 264 264 265 266
252 252 251 253 253 253 253 253 254 253 252 251 251 251 251 252 252 252 253 253 254 254 255 255 255 256 256 256 258 258 258 258 258 259 260 261 262 263 264 264 264 265 265
256 256 255 255 254 253 253 253 253 254 253 252 252 252 252 253 253 254 255 255 255 255 255 255 256 256 256 256 256 257 257 257 258 259 261 262 263 264 264 265 264 264 264
257 257 256 256 255 254 254 253 254 253 252 252 253 253 253 253 254 255 256 255 255 255 255 255 255 256 256 256 256 256 256 257 258 259 260 262 263 264 265 265 266 265 265
257 257 258 258 257 255 254 254 254 253 252 253 253 254 254 254 255 256 256 255 255 255 255 256 257 257 257 257 258 258 257 257 258 259 260 262 263 264 265 264 265 266 266
257 257 257 257 257 256 255 253 253 254 253 254 254 254 254 255 256 256 256 256 255 255 256 257 258 258 258 258 258 258 258 258 259 259 260 262 263 264 265 265 265 265 265
257 257 257 257 256 256 256 254 254 254 254 254 254 254 255 255 255 256 257 258 257 256 256 257 258 258 258 258 258 259 259 260 260 260 261 262 263 264 265 265 266 265 264
258 257 257 257 257 257 256 256 255 254 254 254 255 255 255 255 255 256 256 257 258 257 258 258 258 258 259 259 259 260 260 260 261 261 261 261 262 263 263 264 265 265 264
260 259 258 257 257 257 257 256 255 254 253 253 254 255 255 255 255 256 257 257 258 257 258 258 258 258 259 260 260 261 261 261 260 261 261 261 263 263 263 264 264 264 264
260 260 260 259 258 258 257 257 256 255 254 253 253 253 254 255 255 256 257 258 258 258 258 259 258 257 259 260 261 261 262 261 260 260 260 261 262 263 263 264 264 264 264
260 259 259 259 259 259 259 258 258 257 255 254 254 254 254 255 256 256 257 258 258 258 258 258 258 258 259 261 262 262 262 261 260 260 261 262 262 263 263 263 264 264 265
260 260 259 259 259 259 259 258 258 258 257 257 256 256 256 257 258 258 258 258 258 259 259 259 259 260 261 262 263 262 261 261 260 260 261 262 262 262 263 262 262 263 263
261 260 260 260 260 260 260 259 259 258 258 258 258 258 258 258 258 258 259 260 260 260 260 260 261 260 261 261 262 262 262 261 261 261 261 261 261 261 261 261 262 262 262
261 261 261 261 260 260 260 260 260 259 259 259 258 259 259 259 259 260 260 261 261 261 261 261 262 261 261 261 260 260 261 260 260 261 261 260 260 260 260 260 261 261 261
261 260 261 262 262 261 261 260 260 260 259 259 259 259 259 260 260 261 261 262 262 262 262 262 262 261 261 260 260 259 260 259 260 260 260 260 260 260 260 260 260 260 261
262 261 262 262 262 262 261 261 261 260 260 260 259 259 260 260 260 261 262 262 263 263 263 263 263 262 261 260 260 259 260 260 259 259 260 260 260 260 260 259 259 260 260
262 262 262 262 262 262 262 262 261 260 260 260 260 260 260 261 261 262 263 263 263 263 263 263 262 262 262 261 260 260 260 260 260 260 260 260 260 260 260 260 260 260 260
263 263 263 263 263 263 264 263 262 261 260 260 261 261 261 262 262 263 263 264 264 263 262 262 262 263 263 262 262 262 261 260 260 260 260 260 260 260 260 260 260 260 260
263 264 264 265 265 265 264 264 263 262 262 262 262 262 263 263 263 263 263 264 264 264 263 262 262 262 262 262 262 262 262 262 262 261 260 260 261 261 260 261 261 260 260
264 265 265 265 266 266 265 265 264 263 263 263 263 263 264 264 264 264 264 265 265 264 264 263 262 262 262 262 262 262 262 262 262 261 261 260 261 261 261 261 261 261 262
265 265 266 266 266 266 265 265 264 263 263 263 264 263 263 264 264 264 264 264 264 264 264 263 262 262 262 262 262 262 262 262 262 261 261 260 260 261 261 262 262 262 262
266 267 266 266 267 267 266 264 263 263 263 263 264 264 264 264 264 264 264 263 263 263 263 263 262 262 262 262 263 263 263 262 262 262 262 262 262 261 261 261 262 262 262
267 267 267 267 267 267 266 265 264 263 263 263 264 264 264 265 265 265 265 264 263 264 264 264 263 263 263 263 264 264 263 263 262 262 262 262 263 262 262 262 262 262 262
269 268 268 268 267 266 266 266 264 264 264 264 264 265 265 265 265 265 265 264 263 264 264 264 263 264 264 264 264 264 263 262 262 262 262 263 263 264 263 263 262 262 262
270 269 269 268 268 267 266 266 265 265 265 265 265 265 266 266 266 265 265 264 263 263 264 264 264 263 264 264 264 263 262 262 262 262 263 264 263 263 263 263 262 262 262
271 271 270 269 268 267 266 266 266 266 266 266 266 266 267 266 266 266 265 265 264 263 264 263 263 264 264 264 263 264 263 263 262 262 263 264 264 263 264 263 263 263 262
Height
5792 5793 5795 5796 5797 5799 5800 5801 5802 5803 5805 5806 5807 5809 5810 5811 5812 5814 5815 5816 5816 5817 5818 5819 5820 5821 5822 5822 5822 5823 5824 5825 5827 5828 5828 5829 5830 5830 5831 5831 5832 5832 5832
5784 5785 5786 5787 5789 5790 5791 5793 5794 5795 5797 5798 5800 5801 5803 5804 5805 5806 5807 5808 5809 5810 5811 5812 5813 5813 5814 5814 5815 5816 5817 5818 5819 5820 5822 5822 5823 5823 5824 5825 5825 5825 5825
5775 5776 5777 5778 5780 5781 5782 5784 5785 5786 5788 5789 5791 5793 5794 5795 5797 5798 5799 5800 5801 5802 5803 5804 5805 5805 5806 5806 5807 5808 5809 5810 5812 5813 5814 5815 5815 5816 5817 5817 5818 5818 5819
5765 5766 5767 5768 5770 5771 5772 5774 5775 5777 5778 5780 5782 5784 5785 5787 5788 5789 5790 5791 5793 5794 5795 5796 5797 5797 5797 5798 5799 5800 5801 5802 5804 5805 5806 5807 5808 5808 5809 5810 5810 5811 5811
5755 5756 5757 5758 5759 5760 5761 5763 5765 5767 5768 5770 5772 5774 5776 5777 5779 5780 5781 5782 5784 5785 5786 5787 5788 5789 5789 5790 5791 5791 5792 5794 5795 5796 5797 5798 5799 5800 5801 5801 5802 5802 5803
5744 5745 5746 5747 5748 5749 5750 5752 5753 5755 5757 5759 5761 5763 5765 5767 5768 5770 5771 5772 5774 5775 5776 5778 5779 5780 5781 5782 5782 5783 5784 5785 5786 5787 5788 5789 5790 5791 5791 5792 5793 5794 5794
5732 5733 5734 5735 5736 5737 5738 5740 5742 5743 5746 5748 5750 5752 5754 5756 5757 5759 5760 5762 5763 5765 5766 5767 5768 5770 5771 5772 5773 5774 5775 5776 5777 5777 5779 5779 5780 5781 5782 5782 5783 5784 5785
5720 5721 5721 5722 5723 5725 5726 5728 5730 5731 5734 5736 5738 5740 5742 5745 5746 5747 5749 5751 5752 5753 5755 5756 5757 5759 5760 5761 5762 5763 5764 5765 5766 5767 5768 5769 5770 5770 5771 5772 5773 5774 5774
5707 5707 5708 5710 5711 5712 5714 5715 5717 5719 5721 5723 5725 5727 5729 5732 5734 5736 5737 5739 5740 5741 5743 5744 5746 5747 5748 5749 5750 5751 5752 5753 5754 5755 5756 5757 5758 5759 5760 5760 5761 5762 5763
5694 5695 5696 5697 5698 5699 5701 5702 5704 5706 5708 5710 5712 5714 5717 5718 5721 5723 5724 5726 5727 5728 5730 5731 5733 5734 5735 5736 5738 5738 5740 5740 5741 5742 5743 5744 5745 5746 5747 5748 5749 5750 5751
5682 5682 5683 5684 5685 5687 5688 5689 5691 5693 5695 5697 5699 5701 5703 5705 5706 5709 5711 5713 5714 5715 5716 5718 5719 5721 5722 5723 5724 5725 5726 5727 5728 5729 5730 5731 5732 5733 5734 5735 5736 5737 5738
5669 5670 5671 5672 5673 5674 5675 5676 5678 5679 5681 5683 5685 5687 5689 5691 5693 5695 5697 5698 5700 5702 5702 5704 5705 5706 5707 5708 5710 5711 5712 5713 5714 5715 5716 5717 5718 5719 5720 5721 5722 5724 5725
5657 5657 5658 5659 5660 5661 5662 5663 5664 5666 5668 5669 5671 5673 5675 5676 5678 5680 5681 5683 5685 5687 5688 5689 5690 5691 5693 5694 5695 5696 5697 5698 5700 5701 5702 5703 5704 5705 5706 5707 5709 5710 5711
5644 5644 5645 5645 5646 5647 5648 5649 5650 5652 5654 5655 5657 5659 5660 5662 5663 5664 5666 5668 5669 5671 5673 5674 5675 5676 5677 5678 5679 5680 5682 5684 5685 5687 5688 5689 5690 5691 5692 5694 5695 5696 5697
5630 5631 5632 5632 5633 5633 5634 5635 5636 5637 5639 5640 5642 5644 5646 5647 5648 5650 5651 5652 5654 5655 5658 5659 5659 5660 5660 5662 5663 5664 5667 5668 5670 5672 5673 5675 5676 5677 5678 5679 5681 5681 5682
5617 5618 5618 5619 5619 5620 5620 5621 5622 5623 5624 5626 5627 5629 5630 5632 5633 5634 5635 5636 5637 5638 5640 5643 5643 5643 5644 5645 5647 5648 5650 5652 5654 5655 5657 5659 5661 5662 5663 5664 5666 5667 5668
5604 5604 5605 5605 5605 5606 5606 5607 5608 5608 5610 5611 5612 5613 5615 5616 5617 5618 5619 5620 5621 5621 5623 5626 5626 5627 5627 5629 5630 5632 5634 5636 5637 5639 5641 5643 5644 5646 5647 5649 5650 5651 5653
5590 5590 5591 5591 5591 5591 5592 5592 5593 5593 5594 5596 5597 5598 5599 5600 5601 5602 5602 5603 5604 5604 5606 5608 5610 5610 5611 5612 5614 5615 5617 5619 5621 5622 5624 5626 5627 5629 5631 5632 5633 5635 5637
5576 5576 5576 5576 5576 5577 5577 5577 5577 5578 5579 5580 5581 5582 5583 5583 5584 5585 5585 5586 5586 5587 5588 5590 5593 5593 5594 5595 5597 5599 5600 5602 5603 5605 5606 5608 5610 5612 5614 5615 5616 5618 5620
5561 5561 5561 5561 5561 5561 5561 5561 5562 5563 5563 5564 5565 5565 5566 5566 5567 5567 5568 5568 5569 5569 5570 5572 5574 5576 5577 5578 5579 5581 5583 5584 5586 5587 5588 5590 5592 5593 5596 5598 5599 5601 5602
5546 5546 5546 5545 5545 5545 5545 5545 5545 5546 5547 5548 5548 5548 5549 5549 5549 5550 5550 5551 5551 5552 5553 5554 5556 5558 5559 5560 5562 5563 5565 5566 5567 5568 5570 5572 5574 5576 5577 5579 5580 5582 5584
5530 5530 5530 5529 5529 5529 5529 5528 5529 5529 5530 5531 5531 5531 5532 5532 5532 5532 5533 5533 5534 5535 5536 5537 5539 5540 5542 5542 5544 5545 5546 5548 5550 5552 5551 5553 5554 5556 5558 5560 5562 5563 5565
5515 5514 5513 5513 5513 5512 5512 5511 5511 5512 5513 5513 5514 5514 5514 5514 5514 5515 5515 5515 5516 5517 5519 5520 5521 5523 5524 5525 5526 5527 5528 5529 5531 5532 5532 5534 5535 5536 5538 5540 5542 5543 5545
5498 5498 5497 5496 5496 5496 5495 5495 5494 5494 5495 5496 5496 5496 5497 5497 5496 5496 5497 5497 5498 5500 5501 5502 5504 5506 5506 5506 5507 5508 5508 5510 5512 5512 5512 5515 5516 5518 5519 5521 5522 5524 5526
5482 5481 5480 5479 5479 5479 5478 5478 5477 5477 5478 5478 5478 5479 5479 5479 5479 5478 5479 5480 5481 5482 5482 5483 5485 5486 5487 5487 5487 5488 5490 5491 5493 5494 5493 5495 5497 5498 5500 5502 5503 5504 5505
5465 5464 5463 5462 5462 5461 5461 5460 5460 5460 5461 5461 5461 5461 5461 5460 5460 5459 5460 5461 5463 5464 5465 5466 5467 5468 5469 5469 5469 5470 5471 5472 5474 5476 5475 5475 5477 5477 5480 5483 5483 5484 5485